| time (UTC) | temp F | wind direction | speed knots | gust knots | rain 1hr in | rain 24hr in | rain mn in | humidity % | barometer mb |
| 20260906095519 | 69 | 158 | 0.0 | 3.5 | 0.00 | 0.58 | 0.01 | 90 | 1015.8 |
| 20260906095018 | 69 | 169 | 0.0 | 3.5 | 0.00 | 0.58 | 0.01 | 90 | 1015.8 |
| 20260906094012 | 70 | 169 | 0.9 | 1.7 | 0.00 | 0.58 | 0.01 | 91 | 1015.7 |
| 20260906093506 | 70 | 169 | 0.0 | 1.7 | 0.00 | 0.58 | 0.01 | 91 | 1015.6 |
| 20260906093006 | 70 | 169 | 0.0 | 1.7 | 0.00 | 0.58 | 0.01 | 92 | 1015.6 |
| 20260906092503 | 70 | 161 | 0.9 | 2.6 | 0.00 | 0.58 | 0.01 | 92 | 1015.7 |
| 20260906092001 | 70 | 135 | 0.9 | 2.6 | 0.00 | 0.58 | 0.01 | 92 | 1015.6 |
| 20260906090958 | 71 | 170 | 0.9 | 5.2 | 0.00 | 0.58 | 0.01 | 92 | 1015.6 |
| 20260906090456 | 71 | 127 | 0.9 | 3.5 | 0.00 | 0.58 | 0.01 | 93 | 1015.5 |
| 20260906085956 | 71 | 128 | 0.9 | 3.5 | 0.00 | 0.58 | 0.01 | 93 | 1015.5 |
| 20260906085429 | 71 | 5 | 0.0 | 2.6 | 0.00 | 0.58 | 0.01 | 93 | 1015.4 |
| 20260906084929 | 71 | 180 | 0.0 | 0.0 | 0.00 | 0.58 | 0.01 | 93 | 1015.4 |
| 20260906084417 | 71 | 142 | 0.0 | 0.0 | 0.00 | 0.58 | 0.01 | 93 | 1015.4 |
| 20260906083903 | 71 | 298 | 0.0 | 0.0 | 0.00 | 0.58 | 0.01 | 92 | 1015.4 |
| 20260906082902 | 71 | 297 | 0.0 | 0.0 | 0.00 | 0.58 | 0.01 | 92 | 1015.4 |
| 20260906082402 | 71 | 298 | 0.0 | 0.0 | 0.00 | 0.58 | 0.01 | 92 | 1015.4 |
| 20260906081342 | 71 | 298 | 0.0 | 0.0 | 0.00 | 0.58 | 0.01 | 92 | 1015.2 |
| 20260906080830 | 71 | 297 | 0.0 | 0.0 | 0.00 | 0.58 | 0.01 | 92 | 1015.2 |
| 20260906080310 | 71 | 298 | 0.0 | 0.0 | 0.00 | 0.58 | 0.01 | 92 | 1015.2 |
| 20260906075814 | 71 | 280 | 0.0 | 0.0 | 0.00 | 0.58 | 0.01 | 92 | 1015.1 |
| 20260906075252 | 71 | 280 | 0.0 | 0.0 | 0.00 | 0.58 | 0.01 | 92 | 1015.2 |
| 20260906074741 | 71 | 280 | 0.0 | 0.0 | 0.00 | 0.58 | 0.01 | 92 | 1015.2 |
| 20260906074222 | 71 | 280 | 0.0 | 0.0 | 0.00 | 0.58 | 0.01 | 92 | 1015.2 |
| 20260906073705 | 71 | 280 | 0.0 | 0.0 | 0.00 | 0.58 | 0.01 | 92 | 1015.1 |
| 20260906073202 | 71 | 280 | 0.0 | 0.0 | 0.00 | 0.58 | 0.01 | 92 | 1015.1 |
| 20260906072653 | 71 | 280 | 0.0 | 0.0 | 0.00 | 0.58 | 0.01 | 92 | 1015.0 |
| 20260906072145 | 71 | 280 | 0.0 | 0.0 | 0.00 | 0.58 | 0.01 | 92 | 1015.1 |
| 20260906071611 | 72 | 280 | 0.0 | 0.0 | 0.00 | 0.58 | 0.01 | 92 | 1015.1 |
| 20260906071111 | 72 | 280 | 0.0 | 0.0 | 0.00 | 0.58 | 0.01 | 92 | 1015.3 |
| 20260906070600 | 72 | 280 | 0.0 | 0.0 | 0.00 | 0.58 | 0.01 | 92 | 1015.4 |
| 20260906065527 | 72 | 280 | 0.0 | 0.0 | 0.00 | 0.58 | 0.01 | 92 | 1015.4 |
| 20260906065005 | 72 | 280 | 0.0 | 0.0 | 0.00 | 0.58 | 0.01 | 92 | 1015.4 |
| 20260906064003 | 72 | 280 | 0.0 | 0.0 | 0.00 | 0.58 | 0.01 | 92 | 1015.3 |
| 20260906063503 | 72 | 280 | 0.0 | 0.0 | 0.00 | 0.58 | 0.01 | 92 | 1015.2 |
| 20260906063001 | 72 | 280 | 0.0 | 0.0 | 0.00 | 0.58 | 0.01 | 92 | 1015.2 |
| 20260906062500 | 72 | 280 | 0.0 | 0.0 | 0.00 | 0.58 | 0.01 | 92 | 1015.3 |
| 20260906061953 | 72 | 280 | 0.0 | 0.0 | 0.00 | 0.58 | 0.01 | 92 | 1015.3 |
| 20260906061428 | 72 | 280 | 0.0 | 0.0 | 0.00 | 0.58 | 0.01 | 92 | 1015.3 |
| 20260906060924 | 72 | 280 | 0.0 | 0.0 | 0.00 | 0.58 | 0.01 | 92 | 1015.4 |
| 20260906060406 | 72 | 280 | 0.0 | 0.0 | 0.00 | 0.58 | 0.01 | 92 | 1015.4 |
| 20260906055905 | 72 | 280 | 0.0 | 0.0 | 0.00 | 0.58 | 0.01 | 91 | 1015.5 |
| 20260906055406 | 73 | 280 | 0.0 | 0.0 | 0.00 | 0.58 | 0.01 | 91 | 1015.5 |
| 20260906054904 | 73 | 280 | 0.0 | 0.0 | 0.00 | 0.58 | 0.01 | 91 | 1015.4 |
| 20260906054404 | 73 | 280 | 0.0 | 0.0 | 0.00 | 0.58 | 0.01 | 91 | 1015.4 |
| 20260906053902 | 73 | 280 | 0.0 | 0.0 | 0.00 | 0.58 | 0.01 | 91 | 1015.3 |
| 20260906053353 | 73 | 280 | 0.0 | 0.0 | 0.00 | 0.58 | 0.01 | 91 | 1015.2 |
| 20260906052814 | 73 | 280 | 0.0 | 0.0 | 0.00 | 0.58 | 0.01 | 91 | 1015.2 |
| 20260906052308 | 73 | 280 | 0.0 | 0.0 | 0.00 | 0.58 | 0.01 | 91 | 1015.2 |
| 20260906051255 | 73 | 280 | 0.0 | 0.0 | 0.00 | 0.58 | 0.01 | 91 | 1015.2 |
| 20260906050744 | 73 | 280 | 0.0 | 0.0 | 0.00 | 0.58 | 0.01 | 91 | 1015.1 |
| 20260906050206 | 73 | 280 | 0.0 | 0.0 | 0.01 | 0.58 | 0.01 | 91 | 1015.0 |
| 20260906045624 | 73 | 280 | 0.0 | 0.0 | 0.01 | 0.58 | 0.01 | 91 | 1015.1 |
| 20260906045107 | 74 | 280 | 0.0 | 0.0 | 0.01 | 0.58 | 0.01 | 91 | 1015.1 |
| 20260906044105 | 74 | 280 | 0.0 | 0.0 | 0.01 | 0.58 | 0.01 | 91 | 1015.0 |
| 20260906043605 | 74 | 280 | 0.0 | 0.0 | 0.01 | 0.58 | 0.01 | 90 | 1015.0 |
| 20260906043101 | 74 | 280 | 0.0 | 0.0 | 0.01 | 0.58 | 0.01 | 90 | 1014.9 |
| 20260906042553 | 74 | 280 | 0.0 | 0.0 | 0.01 | 0.58 | 0.01 | 90 | 1014.9 |
| 20260906042049 | 74 | 280 | 0.0 | 0.0 | 0.01 | 0.58 | 0.01 | 90 | 1015.0 |
| 20260906041549 | 74 | 280 | 0.0 | 0.0 | 0.01 | 0.58 | 0.01 | 90 | 1014.9 |
| 20260906041039 | 74 | 280 | 0.0 | 0.0 | 0.01 | 0.58 | 0.01 | 90 | 1014.9 |
| 20260906040527 | 74 | 280 | 0.0 | 0.0 | 0.01 | 0.58 | 0.01 | 90 | 1014.9 |
| 20260906040023 | 74 | 280 | 0.0 | 0.0 | 0.00 | 0.57 | 0.00 | 90 | 1014.8 |
| 20260906034516 | 74 | 302 | 0.0 | 0.0 | 0.00 | 0.57 | 0.57 | 90 | 1014.9 |
| 20260906034016 | 75 | 292 | 0.0 | 0.0 | 0.00 | 0.57 | 0.57 | 90 | 1014.8 |
| 20260906033505 | 75 | 285 | 0.0 | 0.0 | 0.00 | 0.57 | 0.57 | 90 | 1014.7 |
| 20260906033000 | 75 | 285 | 0.0 | 0.0 | 0.00 | 0.57 | 0.57 | 90 | 1014.7 |
| 20260906032500 | 75 | 259 | 0.0 | 0.0 | 0.00 | 0.57 | 0.57 | 90 | 1014.7 |
| 20260906031957 | 75 | 259 | 0.0 | 0.0 | 0.00 | 0.57 | 0.57 | 90 | 1014.7 |
| 20260906031449 | 75 | 259 | 0.0 | 0.0 | 0.00 | 0.57 | 0.57 | 90 | 1014.7 |
| 20260906030942 | 76 | 259 | 0.0 | 0.0 | 0.00 | 0.57 | 0.57 | 90 | 1014.7 |
| 20260906030448 | 76 | 259 | 0.0 | 0.0 | 0.00 | 0.57 | 0.57 | 90 | 1014.9 |
| 20260906025920 | 76 | 259 | 0.0 | 1.7 | 0.00 | 0.57 | 0.57 | 90 | 1014.9 |
| 20260906025406 | 76 | 259 | 0.0 | 1.7 | 0.00 | 0.57 | 0.57 | 90 | 1014.9 |
| 20260906024903 | 76 | 259 | 0.0 | 1.7 | 0.00 | 0.57 | 0.57 | 90 | 1014.6 |
| 20260906024402 | 76 | 115 | 0.0 | 1.7 | 0.00 | 0.57 | 0.57 | 89 | 1014.5 |
| 20260906023858 | 76 | 114 | 0.0 | 1.7 | 0.00 | 0.57 | 0.57 | 89 | 1014.5 |
| 20260906023359 | 76 | 237 | 0.0 | 1.7 | 0.00 | 0.57 | 0.57 | 89 | 1014.5 |
| 20260906022851 | 76 | 5 | 0.0 | 2.6 | 0.00 | 0.57 | 0.57 | 89 | 1014.4 |
| 20260906022347 | 77 | 23 | 0.9 | 2.6 | 0.00 | 0.57 | 0.57 | 89 | 1014.3 |
| 20260906021841 | 77 | 327 | 0.9 | 2.6 | 0.00 | 0.57 | 0.57 | 89 | 1014.3 |
| 20260906021340 | 77 | 306 | 0.9 | 3.5 | 0.01 | 0.57 | 0.57 | 89 | 1014.3 |
| 20260906020329 | 77 | 188 | 0.0 | 1.7 | 0.01 | 0.57 | 0.57 | 89 | 1014.3 |
| 20260906014829 | 78 | 355 | 0.9 | 3.5 | 0.01 | 0.57 | 0.57 | 90 | 1014.0 |
| 20260906014327 | 78 | 23 | 0.9 | 3.5 | 0.01 | 0.57 | 0.57 | 90 | 1014.0 |
| 20260906013826 | 78 | 300 | 0.0 | 3.5 | 0.01 | 0.57 | 0.57 | 90 | 1013.9 |
| 20260906013326 | 78 | 306 | 0.0 | 2.6 | 0.01 | 0.57 | 0.57 | 90 | 1013.8 |
| 20260906012823 | 78 | 321 | 0.0 | 2.6 | 0.01 | 0.57 | 0.57 | 90 | 1013.9 |
| 20260906012313 | 78 | 269 | 0.0 | 2.6 | 0.01 | 0.57 | 0.57 | 90 | 1013.9 |
| 20260906011817 | 79 | 315 | 0.0 | 2.6 | 0.01 | 0.57 | 0.57 | 90 | 1013.9 |
| 20260906010752 | 79 | 315 | 0.0 | 3.5 | 0.00 | 0.56 | 0.56 | 89 | 1013.8 |
| 20260906005736 | 80 | 277 | 0.0 | 1.7 | 0.00 | 0.56 | 0.56 | 89 | 1013.7 |
| 20260906005233 | 80 | 277 | 0.0 | 0.9 | 0.00 | 0.56 | 0.56 | 89 | 1013.7 |
| 20260906004219 | 80 | 277 | 0.0 | 0.0 | 0.00 | 0.56 | 0.56 | 88 | 1013.6 |
| 20260906003719 | 81 | 277 | 0.0 | 0.0 | 0.01 | 0.56 | 0.56 | 88 | 1013.6 |
| 20260906002706 | 81 | 277 | 0.0 | 0.0 | 0.01 | 0.56 | 0.56 | 88 | 1013.6 |
| 20260906001644 | 82 | 277 | 0.0 | 0.0 | 0.01 | 0.56 | 0.56 | 88 | 1013.6 |
| 20260906001137 | 82 | 277 | 0.0 | 1.7 | 0.01 | 0.56 | 0.56 | 88 | 1013.5 |
| 20260906000634 | 82 | 277 | 0.0 | 1.7 | 0.01 | 0.56 | 0.56 | 88 | 1013.5 |
| 20260906000115 | 83 | 167 | 0.0 | 0.0 | 0.01 | 0.56 | 0.56 | 88 | 1013.5 |
| 20260905235610 | 83 | 167 | 0.0 | 0.0 | 0.01 | 0.56 | 0.56 | 88 | 1013.4 |
| 20260905235057 | 83 | 167 | 0.0 | 0.0 | 0.01 | 0.56 | 0.56 | 87 | 1013.4 |
| 20260905234558 | 83 | 167 | 0.0 | 0.0 | 0.02 | 0.56 | 0.56 | 87 | 1013.3 |
| 20260905234030 | 84 | 167 | 0.0 | 0.0 | 0.01 | 0.55 | 0.56 | 87 | 1013.3 |
| 20260905233001 | 85 | 167 | 0.0 | 0.0 | 0.01 | 0.55 | 0.55 | 87 | 1013.3 |
| 20260905232504 | 85 | 167 | 0.0 | 0.0 | 0.01 | 0.55 | 0.55 | 87 | 1013.3 |
| 20260905231448 | 85 | 167 | 0.0 | 0.0 | 0.01 | 0.55 | 0.55 | 86 | 1013.3 |
| 20260905230935 | 86 | 167 | 0.0 | 0.0 | 0.01 | 0.55 | 0.55 | 85 | 1013.2 |
| 20260905225924 | 87 | 167 | 0.0 | 0.9 | 0.01 | 0.55 | 0.55 | 82 | 1013.2 |
| 20260905224905 | 88 | 167 | 0.0 | 0.9 | 0.01 | 0.55 | 0.55 | 81 | 1013.1 |
| 20260905224406 | 89 | 167 | 0.0 | 2.6 | 0.00 | 0.54 | 0.54 | 81 | 1013.0 |
| 20260905223906 | 89 | 167 | 0.9 | 3.5 | 0.00 | 0.54 | 0.54 | 79 | 1013.1 |
| 20260905222400 | 91 | 308 | 0.9 | 2.6 | 0.00 | 0.54 | 0.54 | 72 | 1013.1 |
| 20260905221355 | 91 | 355 | 0.0 | 1.7 | 0.00 | 0.54 | 0.54 | 74 | 1013.2 |
| 20260905220850 | 92 | 355 | 0.0 | 1.7 | 0.00 | 0.54 | 0.54 | 72 | 1013.2 |
| 20260905220352 | 92 | 355 | 0.9 | 1.7 | 0.00 | 0.54 | 0.54 | 73 | 1013.3 |
| 20260905215318 | 92 | 61 | 0.9 | 3.5 | 0.00 | 0.54 | 0.54 | 72 | 1013.5 |
| 20260905214806 | 93 | 0 | 0.9 | 2.6 | 0.00 | 0.54 | 0.54 | 69 | 1013.3 |
| 20260905214304 | 92 | 142 | 0.9 | 2.6 | 0.00 | 0.54 | 0.54 | 69 | 1013.1 |
| 20260905213801 | 92 | 142 | 0.9 | 7.0 | 0.00 | 0.54 | 0.54 | 70 | 1013.3 |
| 20260905213300 | 92 | 94 | 0.9 | 7.0 | 0.00 | 0.54 | 0.54 | 71 | 1013.5 |
| 20260905212758 | 92 | 323 | 0.9 | 3.5 | 0.00 | 0.54 | 0.54 | 71 | 1013.5 |
| 20260905212255 | 92 | 172 | 0.9 | 2.6 | 0.00 | 0.54 | 0.54 | 71 | 1013.6 |
| 20260905211755 | 92 | 347 | 0.9 | 2.6 | 0.00 | 0.54 | 0.54 | 71 | 1013.3 |
| 20260905211257 | 92 | 319 | 0.9 | 2.6 | 0.00 | 0.54 | 0.54 | 72 | 1013.3 |
| 20260905210747 | 92 | 9 | 0.9 | 2.6 | 0.00 | 0.54 | 0.54 | 73 | 1013.3 |
| 20260905210242 | 92 | 5 | 0.9 | 2.6 | 0.00 | 0.54 | 0.54 | 73 | 1013.5 |
| 20260905205742 | 91 | 5 | 0.9 | 2.6 | 0.01 | 0.54 | 0.54 | 72 | 1013.5 |
| 20260905205237 | 91 | 350 | 0.9 | 2.6 | 0.01 | 0.54 | 0.54 | 73 | 1013.4 |
| 20260905204741 | 91 | 350 | 0.9 | 3.5 | 0.01 | 0.54 | 0.54 | 72 | 1013.5 |
| 20260905203737 | 91 | 334 | 0.0 | 0.9 | 0.01 | 0.54 | 0.54 | 77 | 1013.8 |
| 20260905203216 | 91 | 334 | 0.0 | 0.0 | 0.01 | 0.54 | 0.54 | 75 | 1013.6 |
| 20260905202705 | 91 | 334 | 0.0 | 0.0 | 0.01 | 0.54 | 0.54 | 72 | 1013.6 |
| 20260905202204 | 92 | 334 | 0.0 | 0.0 | 0.01 | 0.54 | 0.54 | 72 | 1013.8 |
| 20260905201703 | 92 | 334 | 0.0 | 0.0 | 0.01 | 0.54 | 0.54 | 72 | 1013.9 |
| 20260905201152 | 93 | 334 | 0.0 | 0.0 | 0.01 | 0.54 | 0.54 | 71 | 1013.9 |
| 20260905200123 | 93 | 334 | 0.9 | 1.7 | 0.01 | 0.54 | 0.54 | 73 | 1014.1 |
| 20260905195619 | 93 | 334 | 0.9 | 1.7 | 0.00 | 0.53 | 0.53 | 73 | 1014.2 |
| 20260905195113 | 93 | 335 | 0.9 | 1.7 | 0.00 | 0.53 | 0.53 | 72 | 1014.2 |
| 20260905194615 | 93 | 335 | 0.9 | 1.7 | 0.00 | 0.53 | 0.53 | 72 | 1014.2 |
| 20260905194108 | 93 | 244 | 0.9 | 2.6 | 0.00 | 0.53 | 0.53 | 69 | 1014.3 |
| 20260905193602 | 93 | 156 | 0.9 | 2.6 | 0.00 | 0.53 | 0.53 | 70 | 1014.2 |
| 20260905193059 | 93 | 83 | 1.7 | 2.6 | 0.01 | 0.53 | 0.53 | 70 | 1014.2 |
| 20260905192559 | 93 | 325 | 0.9 | 2.6 | 0.01 | 0.53 | 0.53 | 71 | 1014.3 |
| 20260905192057 | 93 | 337 | 1.7 | 2.6 | 0.01 | 0.53 | 0.53 | 67 | 1014.3 |
| 20260905191049 | 93 | 345 | 0.9 | 1.7 | 0.01 | 0.53 | 0.53 | 70 | 1014.4 |
| 20260905190534 | 92 | 345 | 0.9 | 1.7 | 0.01 | 0.53 | 0.53 | 71 | 1014.5 |
| 20260905190030 | 92 | 345 | 0.9 | 3.5 | 0.01 | 0.53 | 0.53 | 69 | 1014.5 |
| 20260905185526 | 92 | 345 | 0.9 | 3.5 | 0.01 | 0.53 | 0.53 | 71 | 1014.5 |
| 20260905185021 | 92 | 344 | 0.9 | 2.6 | 0.01 | 0.53 | 0.53 | 69 | 1014.7 |
| 20260905184526 | 91 | 344 | 0.9 | 2.6 | 0.01 | 0.53 | 0.53 | 70 | 1014.9 |
| 20260905184014 | 91 | 0 | 1.7 | 3.5 | 0.02 | 0.53 | 0.53 | 69 | 1014.9 |
| 20260905183511 | 91 | 41 | 0.9 | 3.5 | 0.02 | 0.53 | 0.53 | 68 | 1015.1 |
| 20260905182510 | 91 | 70 | 0.9 | 2.6 | 0.01 | 0.52 | 0.52 | 72 | 1015.1 |
| 20260905182009 | 91 | 67 | 0.9 | 2.6 | 0.01 | 0.52 | 0.52 | 69 | 1015.1 |
| 20260905181508 | 91 | 67 | 1.7 | 3.5 | 0.01 | 0.52 | 0.52 | 72 | 1015.1 |
| 20260905181010 | 90 | 343 | 0.9 | 3.5 | 0.01 | 0.52 | 0.52 | 69 | 1015.1 |
| 20260905180007 | 90 | 303 | 0.9 | 4.3 | 0.01 | 0.52 | 0.52 | 75 | 1015.2 |
| 20260905175500 | 90 | 55 | 0.9 | 2.6 | 0.01 | 0.52 | 0.52 | 74 | 1015.4 |
| 20260905174459 | 89 | 30 | 0.0 | 2.6 | 0.02 | 0.52 | 0.52 | 74 | 1015.5 |
| 20260905173958 | 89 | 309 | 0.0 | 1.7 | 0.01 | 0.51 | 0.51 | 77 | 1015.4 |
| 20260905173449 | 89 | 309 | 0.0 | 1.7 | 0.01 | 0.51 | 0.51 | 75 | 1015.4 |
| 20260905172947 | 88 | 309 | 0.0 | 2.6 | 0.01 | 0.51 | 0.51 | 76 | 1015.4 |
| 20260905171927 | 87 | 303 | 0.9 | 3.5 | 0.01 | 0.51 | 0.51 | 75 | 1015.4 |
| 20260905171422 | 87 | 303 | 0.9 | 3.5 | 0.01 | 0.51 | 0.51 | 76 | 1015.5 |
| 20260905170923 | 87 | 335 | 0.0 | 2.6 | 0.01 | 0.51 | 0.51 | 76 | 1015.6 |
| 20260905170415 | 86 | 97 | 0.9 | 3.5 | 0.02 | 0.51 | 0.51 | 78 | 1015.5 |
| 20260905165906 | 86 | 98 | 0.9 | 3.5 | 0.02 | 0.51 | 0.51 | 77 | 1015.6 |
| 20260905165407 | 85 | 76 | 0.9 | 3.5 | 0.02 | 0.51 | 0.51 | 78 | 1015.8 |
| 20260905164900 | 85 | 256 | 0.0 | 2.6 | 0.02 | 0.51 | 0.51 | 79 | 1015.6 |
| 20260905164401 | 84 | 256 | 0.9 | 3.5 | 0.01 | 0.50 | 0.50 | 80 | 1015.5 |
| 20260905163349 | 84 | 65 | 0.9 | 3.5 | 0.02 | 0.50 | 0.50 | 82 | 1015.5 |
| 20260905162851 | 83 | 141 | 0.9 | 3.5 | 0.02 | 0.50 | 0.50 | 80 | 1015.6 |
| 20260905162344 | 83 | 197 | 0.9 | 2.6 | 0.03 | 0.50 | 0.50 | 83 | 1015.5 |
| 20260905161836 | 83 | 111 | 0.0 | 2.6 | 0.03 | 0.50 | 0.50 | 84 | 1015.4 |
| 20260905161315 | 82 | 175 | 0.0 | 2.6 | 0.04 | 0.50 | 0.50 | 85 | 1015.5 |
| 20260905160307 | 81 | 155 | 0.0 | 0.0 | 0.04 | 0.49 | 0.49 | 88 | 1015.6 |
| 20260905155805 | 80 | 155 | 0.0 | 2.6 | 0.05 | 0.49 | 0.49 | 88 | 1015.7 |
| 20260905155306 | 79 | 155 | 0.9 | 2.6 | 0.06 | 0.49 | 0.49 | 88 | 1015.8 |
| 20260905154746 | 79 | 250 | 0.9 | 2.6 | 0.07 | 0.49 | 0.49 | 88 | 1015.8 |
| 20260905153745 | 78 | 340 | 0.0 | 2.6 | 0.08 | 0.48 | 0.48 | 90 | 1015.8 |
| 20260905153245 | 78 | 261 | 0.0 | 1.7 | 0.09 | 0.48 | 0.48 | 91 | 1015.6 |
| 20260905152743 | 77 | 296 | 0.0 | 0.0 | 0.10 | 0.48 | 0.48 | 92 | 1015.5 |
| 20260905152236 | 77 | 57 | 0.0 | 0.0 | 0.10 | 0.47 | 0.47 | 93 | 1015.6 |
| 20260905151730 | 77 | 59 | 0.9 | 2.6 | 0.10 | 0.47 | 0.47 | 94 | 1015.7 |
| 20260905150724 | 76 | 128 | 0.9 | 1.7 | 0.11 | 0.45 | 0.46 | 94 | 1015.8 |
| 20260905150212 | 75 | 85 | 0.0 | 1.7 | 0.12 | 0.45 | 0.45 | 94 | 1015.8 |
| 20260905145713 | 75 | 85 | 0.0 | 2.6 | 0.12 | 0.44 | 0.44 | 94 | 1015.9 |
| 20260905145210 | 74 | 96 | 0.9 | 2.6 | 0.13 | 0.43 | 0.43 | 94 | 1015.9 |
| 20260905144706 | 74 | 139 | 0.9 | 2.6 | 0.14 | 0.42 | 0.42 | 94 | 1016.0 |
| 20260905144205 | 74 | 103 | 0.0 | 2.6 | 0.15 | 0.41 | 0.41 | 94 | 1015.8 |
| 20260905143702 | 73 | 225 | 0.9 | 2.6 | 0.17 | 0.40 | 0.40 | 94 | 1015.7 |
| 20260905143202 | 73 | 305 | 0.9 | 3.5 | 0.20 | 0.39 | 0.39 | 94 | 1015.7 |
| 20260905142702 | 73 | 46 | 0.9 | 4.3 | 0.23 | 0.38 | 0.38 | 94 | 1015.8 |
| 20260905142159 | 72 | 38 | 0.9 | 4.3 | 0.26 | 0.37 | 0.38 | 94 | 1015.6 |
| 20260905141659 | 72 | 279 | 0.0 | 2.6 | 0.34 | 0.36 | 0.37 | 94 | 1015.4 |
| 20260905141159 | 71 | 267 | 0.0 | 2.6 | 0.35 | 0.35 | 0.36 | 93 | 1015.2 |
| 20260905140654 | 71 | 148 | 0.0 | 1.7 | 0.34 | 0.34 | 0.35 | 93 | 1015.4 |
| 20260905140154 | 71 | 41 | 0.0 | 1.7 | 0.33 | 0.33 | 0.33 | 93 | 1015.2 |
| 20260905135651 | 71 | 321 | 0.9 | 4.3 | 0.31 | 0.31 | 0.32 | 93 | 1015.0 |
| 20260905135135 | 71 | 321 | 0.9 | 4.3 | 0.30 | 0.30 | 0.30 | 92 | 1015.0 |
| 20260905133115 | 72 | 68 | 2.6 | 6.1 | 0.18 | 0.18 | 0.19 | 92 | 1015.2 |
| 20260905132615 | 72 | 181 | 4.3 | 13.0 | 0.15 | 0.15 | 0.15 | 92 | 1015.0 |
| 20260905132112 | 73 | 153 | 3.5 | 13.0 | 0.11 | 0.11 | 0.11 | 92 | 1015.0 |
| 20260905131612 | 74 | 34 | 0.9 | 3.5 | 0.01 | 0.01 | 0.02 | 93 | 1016.5 |
| 20260905131112 | 74 | 236 | 0.9 | 3.5 | 0.00 | 0.00 | 0.00 | 94 | 1015.9 |
| 20260905130605 | 74 | 94 | 0.9 | 5.2 | 0.00 | 0.00 | 0.00 | 94 | 1015.5 |
| 20260905124558 | 74 | 283 | 0.0 | 2.6 | 0.00 | 0.00 | 0.00 | 94 | 1015.5 |
| 20260905123050 | 74 | 34 | 0.0 | 1.7 | 0.00 | 0.00 | 0.00 | 94 | 1015.4 |
| 20260905122548 | 74 | 34 | 0.0 | 0.9 | 0.00 | 0.00 | 0.00 | 94 | 1014.9 |
| 20260905122025 | 74 | 34 | 0.0 | 0.0 | 0.00 | 0.00 | 0.00 | 94 | 1014.8 |
| 20260905121513 | 74 | 34 | 0.0 | 0.0 | 0.00 | 0.00 | 0.00 | 94 | 1014.8 |
| 20260905121007 | 74 | 34 | 0.0 | 0.0 | 0.00 | 0.00 | 0.00 | 94 | 1014.7 |
| 20260905120508 | 74 | 34 | 0.0 | 0.0 | 0.00 | 0.00 | 0.00 | 94 | 1014.7 |
| 20260905114925 | 74 | 34 | 0.0 | 0.0 | 0.00 | 0.00 | 0.00 | 94 | 1014.5 |
| 20260905113906 | 74 | 34 | 0.0 | 0.9 | 0.00 | 0.00 | 0.00 | 94 | 1014.3 |
| 20260905113405 | 74 | 34 | 0.0 | 0.9 | 0.00 | 0.00 | 0.00 | 94 | 1014.4 |
| 20260905112905 | 74 | 34 | 0.0 | 0.9 | 0.00 | 0.00 | 0.00 | 94 | 1014.3 |
| 20260905111904 | 74 | 34 | 0.0 | 1.7 | 0.00 | 0.00 | 0.00 | 94 | 1014.2 |
| 20260905111404 | 73 | 34 | 0.0 | 0.9 | 0.00 | 0.00 | 0.00 | 93 | 1014.1 |
| 20260905110855 | 73 | 34 | 0.0 | 0.9 | 0.00 | 0.00 | 0.00 | 93 | 1014.1 |
| 20260905105837 | 73 | 34 | 0.0 | 0.9 | 0.00 | 0.00 | 0.00 | 93 | 1014.1 |
| 20260905105310 | 73 | 34 | 0.0 | 0.9 | 0.00 | 0.00 | 0.00 | 93 | 1014.3 |
| 20260905104811 | 73 | 34 | 0.0 | 2.6 | 0.00 | 0.00 | 0.00 | 93 | 1014.3 |
| 20260905104305 | 73 | 34 | 0.0 | 2.6 | 0.00 | 0.00 | 0.00 | 93 | 1014.3 |
| 20260905103805 | 73 | 37 | 0.0 | 0.0 | 0.00 | 0.00 | 0.00 | 93 | 1014.4 |
| 20260905103304 | 73 | 37 | 0.0 | 0.0 | 0.00 | 0.00 | 0.00 | 93 | 1014.2 |
| 20260905102801 | 73 | 37 | 0.0 | 0.0 | 0.00 | 0.00 | 0.00 | 93 | 1014.3 |
| 20260905102257 | 74 | 37 | 0.0 | 0.0 | 0.00 | 0.00 | 0.00 | 93 | 1014.3 |
| 20260905101736 | 74 | 37 | 0.0 | 0.0 | 0.00 | 0.00 | 0.00 | 93 | 1014.2 |
| 20260905101235 | 73 | 37 | 0.0 | 0.0 | 0.00 | 0.00 | 0.00 | 93 | 1014.2 |
| 20260905100703 | 73 | 37 | 0.0 | 0.0 | 0.00 | 0.00 | 0.00 | 93 | 1014.1 |